Location: Newark
(52.1752°N, 10.4140°W)
Time: 08:33:27
(UTC+00:00)

N. Korean satellite - Pass Details

Date: 24 November 2019
Orbit: 456 x 506 km, 97.2° (Epoch: 05 December)

Event Time Altitude Azimuth Distance (km) Brightness Sun altitude
Rises 17:46:04 0° 173° (S) 2,582 10.4 -9.9°
Reaches altitude 10° 17:48:08 10° 176° (S) 1,708 9.6 -10.2°
Maximum altitude 17:51:48 64° 258° (WSW) 567 7.2 -10.8°
Drops below altitude 10° 17:55:31 10° 341° (NNW) 1,735 9.4 -11.3°
Sets 17:57:39 0° 345° (NNW) 2,626 10.3 -11.6°
